Location: Kunchanapalle
(16.4623°N, 80.6176°E)
Time: 14:11:38
(UTC+00:00)

Hubble Space Telescope - Pass Details

Date: 13 August 2020
Orbit: 536 x 540 km, 28.5° (Epoch: 24 September)

Event Time Altitude Azimuth Distance (km) Brightness Sun altitude
Exits shadow 22:46:42 12° 332° (NNW) 1,626 3.2 -22.3°
Maximum altitude 22:48:19 15° 358° (N) 1,491 3.2 -21.9°
Drops below altitude 10° 22:50:43 10° 34° (NE) 1,780 4.2 -21.4°
Sets 22:53:49 0° 58° (ENE) 2,672 5.8 -20.7°
